[[{"header":{"parameterUnit":"m.s-1","parameterCategory":1,"la1":30.2991,"la2":30.254,"lo1":-89.0895,"lo2":-89.0444,"dy":0.0017,"dx":0.0017,"nx":28,"ny":28,"refTime":"2024-09-02T03:00:00:Z","depth":0,"parameterNumber":2,"parameterNumberName":"U-component_of_WINDS"},"data":[0,0,0,0,0,0,0,0,0,0,0,0,0,0,0,0,0,0,0,0,0,0,0,0,0,0,0,0,0,0,0,0,0,0,0,0,0,0,0,0,0,0,0,0,0,0,0,0,0,0,0,0,0,0,0,0,0,0,-0.0327,-0.0328,0,-0.0367,-0.0367,-0.0367,-0.0351,-0.035,-0.0349,-0.0349,-0.0392,-0.0394,-0.0396,0,0,0,0,0,0,0,0,0,0,0,0,0,-0.0241,-0.0243,-0.0327,-0.0328,-0.0328,-0.0366,-0.0367,-0.0368,-0.0351,-0.035,-0.0349,-0.0348,-0.0391,-0.0394,-0.0396,0,0,0,0,0,0,0,0,0,0,0,0,0,-0.0279,-0.0243,-0.0327,-0.0325,-0.0325,-0.0366,-0.0367,-0.0368,-0.0352,-0.035,-0.0349,-0.0348,-0.039,-0.0393,-0.0396,-0.0443,0,0,-0.0406,-0.0407,0,0,0,0,0,0,0,0,-0.0277,-0.0282,-0.0325,-0.0325,-0.0325,-0.0352,-0.0352,-0.0393,-0.0352,-0.0342,-0.0348,-0.0347,-0.038,-0.0384,-0.0394,-0.0445,-0.0447,-0.0406,-0.0408,-0.0409,-0.041,0,0,0,0,0,0,0,-0.0274,-0.0281,-0.0343,-0.0325,-0.0326,-0.0322,-0.0326,-0.036,-0.0368,-0.0342,-0.0341,-0.0346,-0.038,-0.0392,-0.0395,-0.0448,-0.0406,-0.0408,-0.041,-0.0412,-0.0539,-0.0541,0,0,0,0,0,0,-0.0271,-0.0279,-0.0342,-0.0344,-0.0297,-0.0325,-0.033,-0.0345,-0.0368,-0.037,-0.0347,-0.0345,-0.0387,-0.0392,-0.0397,-0.0454,-0.0409,-0.0412,-0.0414,-0.0538,-0.054,-0.0542,0,0,0,0,0,0,-0.027,-0.0277,-0.034,-0.0311,-0.0319,-0.0328,-0.0346,-0.0347,-0.0358,-0.0372,-0.0373,-0.0357,-0.0386,-0.0393,-0.0432,-0.0455,-0.0413,-0.0416,-0.0536,-0.0538,-0.0541,-0.0569,0,0,0,0,0,0,-0.0267,-0.0277,-0.0294,-0.0311,-0.032,-0.0374,-0.0347,-0.0349,-0.0363,-0.0361,-0.0382,-0.0384,-0.0385,-0.0427,-0.0435,-0.0459,-0.0418,-0.0534,-0.0537,-0.054,-0.0566,-0.0572,-0.0577,0,0,0,0,0,-0.0264,-0.0301,-0.0295,-0.0303,-0.0342,-0.0375,-0.0381,-0.0381,-0.0365,-0.0383,-0.0392,-0.0383,-0.0451,-0.0431,-0.044,-0.0465,-0.0533,-0.0536,-0.054,-0.0563,-0.0571,-0.0577,0,0,0,0,0,0,-0.0288,-0.0304,-0.0297,-0.0341,-0.0357,-0.0373,-0.0396,-0.0389,-0.0411,-0.0408,-0.0408,-0.0413,-0.0453,-0.0463,-0.0441,-0.0512,-0.0489,-0.0495,-0.0505,-0.0512,-0.0517,-0.0515,-0.0421,0,0,0,0,0,-0.0298,-0.0323,-0.0335,-0.0372,-0.0381,-0.0387,-0.0401,-0.04,-0.0417,-0.0424,-0.0435,-0.0453,-0.0478,-0.0495,-0.0519,-0.0566,-0.0571,-0.0587,-0.0593,-0.0597,-0.0603,-0.0629,-0.0637,-0.0553,-0.0553,-0.0553,0,0,-0.032,-0.0331,-0.0347,-0.0378,-0.039,-0.0416,-0.0393,-0.0422,-0.0441,-0.0429,-0.0467,-0.0475,-0.0495,-0.0538,-0.0558,-0.0547,-0.0627,-0.0602,-0.0605,-0.0609,-0.0634,-0.0642,-0.0649,-0.0556,-0.0555,-0.0555,0,0,-0.0374,-0.0384,-0.0417,-0.0429,-0.0447,-0.045,-0.0458,-0.0475,-0.048,-0.0517,-0.0508,-0.0531,-0.0575,-0.0589,-0.0603,-0.0659,-0.0653,-0.0667,-0.0697,-0.0723,-0.0729,-0.0735,-0.0757,-0.0765,-0.0672,-0.0672,-0.0672,0,-0.0399,-0.0438,-0.0434,-0.0464,-0.0478,-0.0465,-0.0499,-0.0511,-0.0537,-0.0547,-0.0534,-0.0588,-0.06,-0.0647,-0.0661,-0.0671,-0.0681,-0.0666,-0.0728,-0.0734,-0.074,-0.0761,-0.0769,-0.0674,-0.0673,-0.0673,-0.0673,0,-0.0468,-0.0495,-0.0519,-0.0543,-0.0559,-0.0591,-0.0593,-0.061,-0.0606,-0.0611,-0.065,-0.0664,-0.069,-0.0701,-0.0698,-0.0748,-0.074,-0.0728,-0.0706,-0.075,-0.0769,-0.0777,-0.0676,-0.0676,-0.0675,-0.0675,0,0,-0.0541,-0.0561,-0.057,-0.0581,-0.0599,-0.062,-0.0651,-0.0676,-0.0691,-0.0708,-0.0735,-0.077,-0.0759,-0.0773,-0.0772,-0.0794,-0.084,-0.0779,-0.0779,-0.0791,-0.0896,-0.0907,-0.0917,-0.0834,-0.0835,-0.0836,-0.0895,0,-0.0598,-0.0651,-0.0648,-0.0698,-0.0723,-0.0711,-0.0737,-0.0752,-0.0757,-0.0779,-0.0784,-0.0811,-0.0792,-0.0801,-0.0822,-0.083,-0.0861,-0.0825,-0.086,-0.0862,-0.0858,-0.0927,-0.0939,-0.0994,-0.0903,-0.0904,-0.0905,0,-0.0672,-0.069,-0.0743,-0.0756,-0.0767,-0.0791,-0.0813,-0.0834,-0.085,-0.0852,-0.0868,-0.0862,-0.0894,-0.0869,-0.0913,-0.0888,-0.0902,-0.0908,-0.091,-0.0915,-0.0888,-0.0936,-0.1011,-0.102,-0.0917,-0.0916,-0.0915,0,-0.0722,-0.076,-0.0796,-0.0805,-0.0822,-0.0839,-0.0847,-0.0861,-0.0876,-0.0896,-0.0905,-0.0928,-0.0942,-0.096,-0.0961,-0.0942,-0.1006,-0.0981,-0.101,-0.101,-0.1026,-0.1026,-0.1107,-0.1031,-0.1031,-0.1031,-0.103,0,-0.0787,-0.082,-0.0819,-0.0842,-0.0878,-0.0874,-0.0911,-0.0917,-0.0929,-0.0954,-0.0943,-0.0966,-0.0965,-0.0988,-0.0989,-0.1026,-0.1032,-0.1035,-0.1036,-0.1038,-0.1038,-0.1049,-0.1046,-0.1033,-0.1032,-0.1032,-0.1032,0,-0.0851,-0.0851,-0.089,-0.0902,-0.0905,-0.0932,-0.0942,-0.0964,-0.0967,-0.0997,-0.1004,-0.1009,-0.1036,-0.1038,-0.107,-0.107,-0.1116,-0.111,-0.111,-0.111,-0.114,-0.1138,-0.1233,-0.1246,-0.116,-0.1161,-0.1161,0,-0.0893,-0.0918,-0.0932,-0.0947,-0.0956,-0.098,-0.0994,-0.0991,-0.1007,-0.1026,-0.1045,-0.1071,-0.1092,-0.1135,-0.1142,-0.1166,-0.1163,-0.1194,-0.1167,-0.1168,-0.1166,-0.1165,-0.1168,-0.1201,-0.1202,-0.1203,-0.1203,0,-0.097,-0.0968,-0.099,-0.1011,-0.1028,-0.1045,-0.106,-0.1073,-0.1071,-0.1089,-0.1116,-0.1132,-0.1163,-0.1189,-0.1212,-0.1221,-0.1213,-0.1211,-0.122,-0.1224,-0.1223,-0.1226,-0.1128,-0.121,-0.1209,-0.1209,-0.1208,-0.1208,-0.1026,-0.1048,-0.1061,-0.1084,-0.1095,-0.1109,-0.113,-0.1135,-0.1157,-0.1182,-0.1178,-0.1208,-0.1222,-0.1252,-0.1262,-0.1286,-0.1276,-0.1287,-0.1291,-0.1294,-0.1298,-0.1217,-0.129,-0.129,-0.1289,-0.1289,-0.1289,0,-0.1104,-0.1111,-0.1132,-0.1154,-0.1173,-0.116,-0.1176,-0.1193,-0.1219,-0.1233,-0.1253,-0.1283,-0.1308,-0.1316,-0.134,-0.1358,-0.1354,-0.1364,-0.1364,-0.1367,-0.1305,-0.1297,-0.1366,-0.1366,-0.1366,-0.1366,-0.1366,-0.1366,-0.1147,-0.1183,-0.1183,-0.1224,-0.1231,-0.126,-0.127,-0.1283,-0.1294,-0.1329,-0.1349,-0.1353,-0.1364,-0.1389,-0.1411,-0.1412,-0.1423,-0.1435,-0.1435,-0.1379,-0.1371,-0.1364,-0.1356,-0.1436,-0.1437,-0.1495,-0.1495,-0.1496]},{"header":{"parameterUnit":"m.s-1","parameterCategory":1,"la1":30.2991,"la2":30.254,"lo1":-89.0895,"lo2":-89.0444,"dy":0.0017,"dx":0.0017,"nx":28,"ny":28,"refTime":"2024-09-02T03:00:00:Z","depth":0,"parameterNumber":3,"parameterNumberName":"V-component_of_WINDS"},"data":[0,0,0,0,0,0,0,0,0,0,0,0,0,0,0,0,0,0,0,0,0,0,0,0,0,0,0,0,0,0,0,0,0,0,0,0,0,0,0,0,0,0,0,0,0,0,0,0,0,0,0,0,0,0,0,0,0,0,-3.1374,-3.1376,0,-3.1481,-3.1482,-3.1483,-3.1454,-3.1452,-3.1449,-3.1447,-3.1556,-3.1561,-3.1566,0,0,0,0,0,0,0,0,0,0,0,0,0,-3.1146,-3.115,-3.1374,-3.1376,-3.1377,-3.148,-3.1482,-3.1483,-3.1454,-3.1452,-3.1449,-3.1446,-3.1555,-3.1561,-3.1566,0,0,0,0,0,0,0,0,0,0,0,0,0,-3.1248,-3.1152,-3.1374,-3.1375,-3.1376,-3.148,-3.1482,-3.1484,-3.1455,-3.1451,-3.1448,-3.1445,-3.1553,-3.156,-3.1567,-3.1677,0,0,-3.159,-3.1593,0,0,0,0,0,0,0,0,-3.1242,-3.1256,-3.1373,-3.1375,-3.1376,-3.1451,-3.1441,-3.1549,-3.1456,-3.1425,-3.1447,-3.1444,-3.1524,-3.1533,-3.156,-3.1682,-3.1687,-3.159,-3.1595,-3.1598,-3.16,0,0,0,0,0,0,0,-3.1235,-3.1252,-3.1416,-3.1375,-3.1377,-3.137,-3.1381,-3.1462,-3.1491,-3.1427,-3.1425,-3.1438,-3.1524,-3.1553,-3.1563,-3.1689,-3.159,-3.1597,-3.1601,-3.1604,-3.1907,-3.191,0,0,0,0,0,0,-3.1227,-3.1246,-3.1413,-3.142,-3.13,-3.1377,-3.1389,-3.143,-3.149,-3.1496,-3.1441,-3.1437,-3.1542,-3.1554,-3.1566,-3.17,-3.1598,-3.1605,-3.1609,-3.1903,-3.1907,-3.1911,0,0,0,0,0,0,-3.1222,-3.1242,-3.1409,-3.1332,-3.1353,-3.1384,-3.1431,-3.1434,-3.1463,-3.1501,-3.1506,-3.1466,-3.154,-3.1556,-3.165,-3.1703,-3.1608,-3.1615,-3.1899,-3.1904,-3.1909,-3.1967,0,0,0,0,0,0,-3.1216,-3.1241,-3.1283,-3.1334,-3.1357,-3.1491,-3.1434,-3.1438,-3.1476,-3.1471,-3.1525,-3.1531,-3.1539,-3.1639,-3.1657,-3.1712,-3.1621,-3.1894,-3.1901,-3.1908,-3.1961,-3.1974,-3.1985,0,0,0,0,0,-3.1208,-3.1295,-3.1285,-3.1305,-3.1411,-3.1494,-3.1507,-3.1515,-3.148,-3.1523,-3.1547,-3.1529,-3.1694,-3.1649,-3.1669,-3.1727,-3.1891,-3.1899,-3.1907,-3.1955,-3.1971,-3.1985,0,0,0,0,0,0,-3.125,-3.1301,-3.1291,-3.1397,-3.1441,-3.1489,-3.1543,-3.1532,-3.1587,-3.158,-3.1587,-3.1599,-3.1696,-3.172,-3.1669,-3.1836,-3.1787,-3.18,-3.1817,-3.1833,-3.1845,-3.1837,-3.1627,0,0,0,0,0,-3.1271,-3.1334,-3.1376,-3.1466,-3.1488,-3.1512,-3.1548,-3.155,-3.1596,-3.1615,-3.1646,-3.1691,-3.1753,-3.1794,-3.1853,-3.1964,-3.1975,-3.2013,-3.2025,-3.2035,-3.2046,-3.2107,-3.2124,-3.1938,-3.1938,-3.1938,0,0,-3.1316,-3.1352,-3.1392,-3.1475,-3.1509,-3.1575,-3.1528,-3.1599,-3.1648,-3.1626,-3.1717,-3.1741,-3.1792,-3.1895,-3.1942,-3.1918,-3.21,-3.2045,-3.2053,-3.2059,-3.2117,-3.2135,-3.215,-3.1944,-3.1943,-3.1942,0,0,-3.1432,-3.1466,-3.1544,-3.158,-3.1633,-3.1648,-3.1666,-3.1716,-3.1731,-3.1822,-3.1807,-3.1865,-3.1972,-3.2009,-3.2042,-3.2172,-3.2158,-3.2191,-3.2256,-3.2315,-3.2329,-3.2342,-3.239,-3.2407,-3.2202,-3.2202,-3.2202,0,-3.1482,-3.158,-3.1586,-3.1659,-3.1696,-3.1679,-3.1759,-3.1793,-3.1862,-3.1888,-3.1861,-3.1995,-3.2028,-3.214,-3.2171,-3.2198,-3.222,-3.2185,-3.2327,-3.234,-3.2352,-3.2397,-3.2415,-3.2206,-3.2205,-3.2205,-3.2204,0,-3.1639,-3.1708,-3.1765,-3.1832,-3.1876,-3.1952,-3.1969,-3.2012,-3.201,-3.2028,-3.2122,-3.2161,-3.2228,-3.2254,-3.2253,-3.2366,-3.235,-3.2325,-3.2276,-3.2374,-3.2416,-3.2434,-3.2211,-3.221,-3.2208,-3.2208,0,0,-3.1786,-3.1855,-3.1876,-3.1907,-3.1964,-3.2017,-3.2092,-3.2157,-3.2195,-3.2243,-3.2307,-3.2397,-3.2374,-3.2412,-3.2414,-3.2466,-3.2568,-3.2435,-3.2436,-3.2459,-3.2695,-3.2715,-3.2735,-3.2558,-3.2561,-3.2564,-3.2691,0,-3.1907,-3.204,-3.2047,-3.2168,-3.2231,-3.2215,-3.2281,-3.2323,-3.2342,-3.2398,-3.2419,-3.2483,-3.2448,-3.247,-3.2521,-3.2545,-3.2615,-3.2535,-3.2618,-3.2621,-3.2607,-3.2757,-3.2778,-3.2896,-3.2708,-3.2711,-3.2713,0,-3.2068,-3.2121,-3.2248,-3.2296,-3.2323,-3.2381,-3.2442,-3.2496,-3.2544,-3.2554,-3.2595,-3.2591,-3.2668,-3.2616,-3.2722,-3.2668,-3.2702,-3.2719,-3.2723,-3.2732,-3.2674,-3.2771,-3.2934,-3.2952,-3.2739,-3.2737,-3.2735,0,-3.2163,-3.2266,-3.2356,-3.2382,-3.244,-3.2482,-3.2508,-3.2552,-3.2591,-3.2644,-3.267,-3.2731,-3.2765,-3.2812,-3.2824,-3.2785,-3.2931,-3.288,-3.2942,-3.2942,-3.2975,-3.2973,-3.3147,-3.2995,-3.2995,-3.2994,-3.2994,0,-3.2299,-3.2377,-3.2399,-3.2455,-3.2542,-3.2549,-3.2636,-3.2659,-3.2698,-3.2758,-3.2747,-3.2803,-3.2815,-3.2874,-3.2884,-3.2971,-3.2986,-3.2997,-3.2998,-3.2998,-3.2997,-3.3022,-3.3014,-3.2999,-3.2998,-3.2997,-3.2996,0,-3.2421,-3.2438,-3.2535,-3.2582,-3.2595,-3.2658,-3.2698,-3.2751,-3.2768,-3.2844,-3.2862,-3.2889,-3.2957,-3.2974,-3.3055,-3.3061,-3.3165,-3.3158,-3.3149,-3.3149,-3.3211,-3.3206,-3.3408,-3.3435,-3.3265,-3.3266,-3.3267,0,-3.2507,-3.2567,-3.262,-3.2659,-3.2687,-3.275,-3.279,-3.28,-3.2842,-3.29,-3.2946,-3.3013,-3.3067,-3.3177,-3.3204,-3.3267,-3.3262,-3.3329,-3.3271,-3.327,-3.3264,-3.3261,-3.3268,-3.334,-3.3342,-3.3343,-3.3344,0,-3.2659,-3.2664,-3.2722,-3.2783,-3.2831,-3.288,-3.2926,-3.2959,-3.2974,-3.3022,-3.3092,-3.3134,-3.3217,-3.3284,-3.3347,-3.3373,-3.3362,-3.3362,-3.338,-3.3381,-3.3374,-3.338,-3.318,-3.3358,-3.3356,-3.3355,-3.3355,-3.3354,-3.2766,-3.2819,-3.2865,-3.2929,-3.2965,-3.3009,-3.3061,-3.3085,-3.3143,-3.3212,-3.3213,-3.329,-3.3335,-3.3418,-3.3449,-3.3509,-3.3488,-3.3514,-3.3521,-3.3527,-3.3533,-3.3363,-3.352,-3.3519,-3.3519,-3.3519,-3.3518,0,-3.2918,-3.2946,-3.3006,-3.3071,-3.3122,-3.3106,-3.3157,-3.3201,-3.3268,-3.3312,-3.3365,-3.3446,-3.3511,-3.3543,-3.3607,-3.3649,-3.3645,-3.3665,-3.3663,-3.367,-3.3547,-3.3526,-3.3667,-3.3667,-3.3667,-3.3667,-3.3667,-3.3667,-3.3003,-3.3092,-3.3103,-3.3209,-3.3237,-3.3312,-3.3342,-3.3383,-3.3417,-3.3508,-3.3562,-3.3582,-3.3621,-3.3688,-3.3747,-3.3755,-3.3779,-3.3803,-3.3808,-3.3693,-3.3678,-3.3664,-3.3644,-3.3808,-3.3808,-3.3925,-3.3926,-3.3927]}]]